Starlink 30094

operational
NORAD ID: 56305 Int'l Des: 2023-056 Owner: SPXS Country: US Constellation: starlink
LEOCIRCULAR

关于 Starlink 30094

正在加载描述...

实时位置

正在加载3D地球...

即将过境

高度历史

Altitude vs Time

uPlot chart will show altitude changes over time

两行轨道根数

1 56305U 23056V 25351.57444460 .00001331 00000-0 11354-3 0 9990
2 56305 43.0026 296.2014 0001103 271.0207 89.0509 15.02539676147731
Epoch: Dec 17, 2025 • Age: 9 hours

当前状态

高度 568.7 km
速度 7.58 km/s
星下点 -35.56°S, 94.73°E
发射日期 Apr 19, 2023
运行时间 2.6 years
类型 internet

技术详情

分类 Payload
质量 730.00 kg
干质量 700.00 kg
总质量 730.00 kg
长度 0.30 m
直径 4.10 m
跨度 29.00 m
形状 Box + pan
制造商 SPXS
平台类型 Starlink V2M
阶段状态 In Orbit
所有者/国家 SPXS/US

大型星座

Loading constellations...